• In Uzbekistan
  • List of Countries
  • For 7 days
  • Water Temperature
  • Satellite Maps
  • Weather Map
  • Weather Widgets
  • user-avatar
    Login

    Hourly Weather Bukavu

    Today, 20 November, Monday

    Time Temperature Precipitation Wind Pressure Humidity
    00:00 +19°C° 0 mm 0 mps 687 mmHg 79%
    01:00 +19°C° 0 mm 0 mps 687 mmHg 80%
    02:00 +18°C° 0 mm 0 mps 687 mmHg 82%
    03:00 +18°C° 0 mm 0 mps 687 mmHg 85%
    04:00 +17°C° 0 mm 0 mps 687 mmHg 88%
    05:00 +17°C° 0 mm 0 mps 687 mmHg 91%
    06:00 +19°C° 0 mm 0 mps 688 mmHg 83%
    07:00 +21°C° 0 mm 0 mps 688 mmHg 75%
    08:00 +23°C° 0 mm 0 mps 689 mmHg 67%
    09:00 +26°C° 0 mm 0 mps 689 mmHg 56%
    10:00 +31°C° 0 mm 1 mps 690 mmHg 46%
    11:00 +34°C° 0 mm 1 mps 690 mmHg 35%
    12:00 +34°C° 0 mm 1 mps 689 mmHg 33%
    13:00 +34°C° 0 mm 1 mps 688 mmHg 31%
    14:00 +34°C° 0 mm 1 mps 688 mmHg 29%
    15:00 +32°C° 0 mm 1 mps 687 mmHg 37%
    16:00 +30°C° 0 mm 1 mps 686 mmHg 45%
    17:00 +26°C° 0 mm 0 mps 686 mmHg 54%
    18:00 +25°C° 0 mm 0 mps 686 mmHg 56%
    19:00 +23°C° 0 mm 0 mps 686 mmHg 59%
    20:00 +22°C° 0 mm 0 mps 687 mmHg 62%
    21:00 +21°C° 0 mm 0 mps 687 mmHg 63%
    22:00 +20°C° 0 mm 0 mps 687 mmHg 65%
    23:00 +20°C° 0 mm 0 mps 687 mmHg 66%

    Tomorrow, 21 November, Tuesday

    Time Temperature Precipitation Wind Pressure Humidity
    00:00 +19°C° 0 mm 0 mps 687 mmHg 68%
    01:00 +19°C° 0 mm 0 mps 686 mmHg 70%
    02:00 +20°C° 0 mm 1 mps 686 mmHg 72%
    03:00 +20°C° 0 mm 1 mps 686 mmHg 75%
    04:00 +19°C° 0 mm 1 mps 686 mmHg 78%
    05:00 +17°C° 0 mm 0 mps 686 mmHg 80%
    06:00 +19°C° 0 mm 0 mps 687 mmHg 74%
    07:00 +21°C° 0 mm 0 mps 688 mmHg 67%
    08:00 +24°C° 0 mm 0 mps 689 mmHg 60%
    09:00 +27°C° 0 mm 0 mps 689 mmHg 52%
    10:00 +30°C° 0 mm 0 mps 689 mmHg 44%
    11:00 +33°C° 0 mm 0 mps 690 mmHg 35%
    12:00 +33°C° 0 mm 0 mps 688 mmHg 34%
    13:00 +34°C° 0 mm 1 mps 687 mmHg 33%
    14:00 +34°C° 0 mm 1 mps 686 mmHg 32%
    15:00 +33°C° 0 mm 1 mps 686 mmHg 39%
    16:00 +31°C° 0 mm 1 mps 686 mmHg 46%
    17:00 +28°C° 0 mm 0 mps 685 mmHg 53%
    18:00 +26°C° 0 mm 0 mps 686 mmHg 55%
    19:00 +25°C° 0 mm 0 mps 686 mmHg 58%
    20:00 +23°C° 0 mm 0 mps 686 mmHg 60%
    21:00 +23°C° 0 mm 0 mps 687 mmHg 62%
    22:00 +22°C° 0 mm 0 mps 687 mmHg 64%
    23:00 +22°C° 0 mm 0 mps 687 mmHg 67%

    Day after tomorrow, 22 November, Wednesday

    Time Temperature Precipitation Wind Pressure Humidity
    00:00 +21°C° 0 mm 0 mps 686 mmHg 70%
    01:00 +20°C° 0 mm 0 mps 686 mmHg 74%
    02:00 +19°C° 0 mm 0 mps 685 mmHg 78%
    03:00 +19°C° 0 mm 0 mps 685 mmHg 81%
    04:00 +19°C° 0 mm 0 mps 685 mmHg 85%
    05:00 +18°C° 0 mm 0 mps 685 mmHg 88%
    06:00 +20°C° 0 mm 0 mps 686 mmHg 81%
    07:00 +24°C° 0 mm 1 mps 687 mmHg 74%
    08:00 +26°C° 0 mm 1 mps 688 mmHg 67%
    09:00 +29°C° 0 mm 1 mps 689 mmHg 58%
    10:00 +32°C° 0 mm 1 mps 689 mmHg 49%
    11:00 +34°C° 0 mm 1 mps 689 mmHg 40%
    12:00 +31°C° 0 mm 0 mps 688 mmHg 43%
    13:00 +30°C° 0 mm 0 mps 687 mmHg 47%
    14:00 +29°C° 0 mm 0 mps 686 mmHg 50%
    15:00 +28°C° 0 mm 0 mps 685 mmHg 54%
    16:00 +29°C° 0 mm 1 mps 685 mmHg 57%
    17:00 +29°C° 0 mm 1 mps 685 mmHg 61%
    18:00 +27°C° 0 mm 1 mps 685 mmHg 66%
    19:00 +26°C° 0 mm 1 mps 686 mmHg 71%
    20:00 +22°C° 0 mm 0 mps 686 mmHg 76%
    21:00 +22°C° 0 mm 0 mps 686 mmHg 77%
    22:00 +21°C° 0 mm 0 mps 686 mmHg 78%
    23:00 +20°C° 0 mm 0 mps 686 mmHg 79%

    23 November, Thursday

    Time Temperature Precipitation Wind Pressure Humidity
    00:00 +20°C° 0 mm 0 mps 686 mmHg 79%
    01:00 +20°C° 0 mm 0 mps 685 mmHg 80%
    02:00 +19°C° 0 mm 0 mps 685 mmHg 81%
    03:00 +19°C° 0 mm 0 mps 685 mmHg 83%
    04:00 +18°C° 0 mm 0 mps 685 mmHg 85%
    05:00 +18°C° 0 mm 0 mps 685 mmHg 87%
    06:00 +20°C° 0 mm 0 mps 686 mmHg 79%
    07:00 +22°C° 0 mm 0 mps 687 mmHg 72%
    08:00 +24°C° 0 mm 0 mps 688 mmHg 64%
    09:00 +28°C° 0 mm 1 mps 688 mmHg 54%
    10:00 +31°C° 0 mm 1 mps 689 mmHg 44%
    11:00 +33°C° 0 mm 1 mps 689 mmHg 34%
    12:00 +34°C° 0 mm 1 mps 688 mmHg 32%
    13:00 +34°C° 0 mm 1 mps 687 mmHg 30%
    14:00 +34°C° 0 mm 1 mps 686 mmHg 28%
    15:00 +33°C° 0 mm 1 mps 686 mmHg 34%
    16:00 +32°C° 0 mm 1 mps 685 mmHg 40%
    17:00 +28°C° 0 mm 0 mps 685 mmHg 47%
    18:00 +26°C° 0 mm 0 mps 686 mmHg 50%
    19:00 +24°C° 0 mm 0 mps 686 mmHg 54%
    20:00 +21°C° 0 mm 0 mps 686 mmHg 57%
    21:00 +21°C° 0 mm 0 mps 686 mmHg 57%
    22:00 +21°C° 0 mm 0 mps 686 mmHg 57%
    23:00 +21°C° 0 mm 0 mps 687 mmHg 57%

    24 November, Friday

    Time Temperature Precipitation Wind Pressure Humidity
    00:00 +21°C° 0 mm 0 mps 686 mmHg 58%
    01:00 +21°C° 0 mm 0 mps 686 mmHg 59%
    02:00 +23°C° 0 mm 1 mps 686 mmHg 60%
    03:00 +20°C° 0 mm 0 mps 686 mmHg 68%
    04:00 +19°C° 0 mm 0 mps 686 mmHg 76%
    05:00 +18°C° 0 mm 0 mps 686 mmHg 83%
    06:00 +20°C° 0 mm 0 mps 687 mmHg 79%
    07:00 +22°C° 0 mm 0 mps 688 mmHg 74%
    08:00 +24°C° 0 mm 0 mps 689 mmHg 70%
    09:00 +26°C° 0.1 mm 0 mps 689 mmHg 60%
    10:00 +29°C° 0.1 mm 1 mps 689 mmHg 51%
    11:00 +31°C° 0.1 mm 1 mps 689 mmHg 41%
    12:00 +32°C° 0 mm 1 mps 688 mmHg 39%
    13:00 +32°C° 0 mm 1 mps 687 mmHg 37%
    14:00 +32°C° 0 mm 1 mps 686 mmHg 35%
    15:00 +31°C° 0 mm 1 mps 686 mmHg 40%
    16:00 +30°C° 0 mm 1 mps 686 mmHg 45%
    17:00 +28°C° 0 mm 1 mps 686 mmHg 51%
    18:00 +27°C° 0 mm 1 mps 686 mmHg 55%
    19:00 +23°C° 0 mm 0 mps 687 mmHg 59%
    20:00 +21°C° 0 mm 0 mps 687 mmHg 64%
    21:00 +21°C° 0 mm 0 mps 687 mmHg 65%
    22:00 +20°C° 0 mm 0 mps 687 mmHg 67%
    23:00 +20°C° 0 mm 0 mps 687 mmHg 68%

    25 November, Saturday

    Time Temperature Precipitation Wind Pressure Humidity
    00:00 +20°C° 0 mm 0 mps 687 mmHg 71%
    01:00 +19°C° 0 mm 0 mps 686 mmHg 75%
    02:00 +19°C° 0 mm 0 mps 686 mmHg 78%
    03:00 +18°C° 0 mm 0 mps 686 mmHg 81%
    04:00 +18°C° 0 mm 0 mps 686 mmHg 83%
    05:00 +18°C° 0 mm 0 mps 687 mmHg 86%
    06:00 +19°C° 0 mm 0 mps 687 mmHg 80%
    07:00 +23°C° 0 mm 1 mps 688 mmHg 74%
    08:00 +25°C° 0 mm 1 mps 689 mmHg 68%
    09:00 +26°C° 0.3 mm 1 mps 689 mmHg 66%
    10:00 +28°C° 0.3 mm 1 mps 689 mmHg 63%
    11:00 +30°C° 0.3 mm 1 mps 689 mmHg 61%
    12:00 +30°C° 0.1 mm 1 mps 688 mmHg 54%
    13:00 +31°C° 0.1 mm 1 mps 688 mmHg 48%
    14:00 +31°C° 0.1 mm 1 mps 687 mmHg 42%
    15:00 +30°C° 0 mm 1 mps 687 mmHg 47%
    16:00 +27°C° 0 mm 0 mps 687 mmHg 51%
    17:00 +26°C° 0 mm 0 mps 687 mmHg 56%
    18:00 +24°C° 0 mm 0 mps 687 mmHg 62%
    19:00 +23°C° 0 mm 0 mps 687 mmHg 67%
    20:00 +21°C° 0 mm 0 mps 688 mmHg 72%
    21:00 +21°C° 0 mm 0 mps 688 mmHg 74%
    22:00 +20°C° 0 mm 0 mps 688 mmHg 77%
    23:00 +22°C° 0 mm 1 mps 688 mmHg 79%
    Show more